User: anonymous   Login
Location: Drummondville
(45.8830°N, 72.4830°W)
Time: 00:14:03
(UTC-05:00)
Language:

Tiangong 1 - Orbit

View from above orbital plane
View from above orbital plane
View from above satellite
View from above satellite

Ground track
Ground track

The orbit data is extracted from the following two-line orbital elements,

1 37820U 11053A   18019.77340780  .00065014  10094-4  12600-3 0  9991
2 37820  42.7527 296.7667 0018427 203.7113 259.1197 15.99740995362396
Epoch (UTC): 19 January 2018 18:33:42
Eccentricity: 0.0018427
inclination: 42.7527°
perigee height: 263 km
apogee height: 287 km
right ascension of ascending node: 296.7667°
argument of perigee: 203.7113°
revolutions per day: 15.99740995
mean anomaly at epoch: 259.1197°
orbit number at epoch: 36239

The dashed part of the orbit path shows where the satellite is in the earth's shadow,  

DLR